Showing default

IRIDIUM 29, 24944

Orbit data source: Space-Track

IRIDIUM 29, 24944 is a payload satellite owned by Iridium (US) in LEO that was launched on Sun, 14 Sep 1997 UTC via a PROTON-K/17S40 launch vehicle from the Tyuratam Missile And Space Complex (TTMTR). Payload-class satellites include a variety of spacecraft equipped with specific instruments for various scientific and technological missions. These include communications satellites like Starlink; space stations such as the ISS; scientific satellites like the Hubble; Earth observation satellites from companies like Planet Labs, Umbra, and HawkEye 360; GPS; miniature CubeSats for education and research; and military/defense satellites.

Loading next visibility...
Identifier
24944, 1997-051A
Orbit
LEO
Country
Flag of USUS
Related business
Manufacturer
MOTO/LMMS
Mission
Non-operational Commercial Communications
Bus & Motor
LM700, Unknown motor
Mass
662 kg wet, 556 kg dry
Launch date (UTC)
1997-09-14 (28 years ago)
Launch vehicle
PROTON-K/17S40
Launch site
Tyuratam Missile And Space Complex (TTMTR)
Object type
Payload
Rocket body
Debris
Shape & HBR
Box + 2 Pan, 4.0 m
Radar Cross Section
5.666 m², Large (>1 m²)

Expand to show TLE details & history
Last TLE update: 1 day ago

TLE from 1 day ago
0 IRIDIUM 29
1 24944U 97051A   25301.46200845  .00000767  00000-0  25423-3 0  9994
2 24944  86.3916  87.9558 0001969  95.9756 264.1666 14.36595467472404
Epoch: 2025-10-28T11:05Z
TLE epoch observation values (Epoch: 2025-10-28T11:05:17.530Z)
Latitude
0.00004°
Longitude
-115.4164°
Altitude
772.967 km
Speed
7.467 km/s
True Right ascension
05h 51m 49s
True Declination
0° 00' 00"
Sunlit
Object was in full shadow at epoch
Visualization orbit readout
Latitude
Unknown
Longitude
Unknown
Altitude
Unknown
Speed
Unknown
Apparent Right ascension
Unknown
Apparent Declination
Unknown
Sunlit
N/A
Visualization observer readout
Local Sidereal Time
11:30:14
Azimuth
Unknown
Elevation
Unknown
Doppler factor
Unknown
Orbital elements
Apogee altitude
768.137 km
Perigee altitude
765.324 km
Semi-major axis
7,144.867 km
Eccentricity
0.0002
Inclination
86.3916°
RAAN
87.9558°
Arg. of periapsis
95.9756°
True anomaly
264.14415°
Mean anomaly
264.1666°
Eccentric anomaly
264.15538°
Mean motion
3.59378 °/min
Orbital period
100.17 mins
BSTAR
0.00025423
Loading maneuver chart data...
Computing Atmospheric mass density...

Documentation

Showing up to 5 results
|